Regional Weather Roundup
Issued by NWS

Home | Current Version | Previous Version | Text Only | Print | Product List | Glossary On
Versions: 1 2 3 4 5 6 7 8 9 10 11 12 13 14 15 16 17 18 19 20 21 22 23 24 25 26 27 28 29 30 31 32 33 34 35 36 37 38 39 40 41 42 43 44 45 46 47 48
000
ASUS45 KCYS 010410
RWRWY

WYOMING REGIONAL WEATHER ROUNDUP
NATIONAL WEATHER SERVICE CHEYENNE WY
1000 PM MDT TUE SEP 30 2014

NOTE:  "FAIR" INDICATES FEW OR NO CLOUDS BELOW 12,000 FEET
WITH NO SIGNIFICANT WEATHER AND/OR OBSTRUCTIONS TO VISIBILITY.

WYZ001-010500-
YELLOWSTONE NATIONAL PARK

CITY           SKY/WX    TMP DP  RH WIND       PRES   REMARKS
LK YELLOWSTONE   N/A     33  32  96 CALM      29.97R
W YELLOWSTONE  NOT AVBL

$$
WYZ002>013-054>058-071-098>099-010500-
NORTHERN WYOMING

CITY           SKY/WX    TMP DP  RH WIND       PRES   REMARKS
JACKSON        MOCLDY    39  34  81 S8        29.95R WCI  34
CODY           CLOUDY    50  45  81 CALM      29.83R
GREYBULL       LGT RAIN  53  49  86 W10       29.79R
WORLAND        HVY RAIN  51  48  89 NW7       29.81R FOG
SHERIDAN       CLOUDY    51  45  79 NW5       29.77R
BUFFALO        CLOUDY    50  43  77 NW7       29.80R
GILLETTE       CLOUDY    49  44  83 W8        29.77R
HULETT         CLOUDY    52  46  82 W14G22    29.74
NEWCASTLE      MOCLDY    50  43  76 NW5       29.77

$$
WYZ014>020-022>026-101>103-010500-
CENTRAL WYOMING

CITY           SKY/WX    TMP DP  RH WIND       PRES   REMARKS
BIG PINEY      PTCLDY    38  31  76 N6        29.97S WCI  33
PINEDALE       PTCLDY    37  34  87 NW3       29.97S
DUBOIS         LGT RAIN  41  34  75 NW13      29.91R
LANDER         MOCLDY    49  38  65 SW3       29.82R
RIVERTON       PTCLDY    51  36  56 NW20      29.82R
CASPER         MOCLDY    48  39  71 SW8       29.82R
DOUGLAS        CLOUDY    51  44  77 N6        29.82R

$$
WYZ021-027>030-104>119-010500-
SOUTHERN WYOMING

CITY           SKY/WX    TMP DP  RH WIND       PRES   REMARKS
EVANSTON       MOCLDY    39  36  89 SW6       30.01R WCI  35
KEMMERER       MOCLDY    37  37 100 W7        30.01R WCI  32
FORT BRIDGER     N/A     42  40  94 W7        30.04R
ROCK SPRINGS   MOCLDY    41  37  86 SW17      29.97S
DIXON          CLOUDY    43  41  93 CALM      30.01S
RAWLINS        PTCLDY    43  38  82 W17       29.94R
SARATOGA       CLOUDY    41  37  87 S5        29.98R
LARAMIE        CLOUDY    44  36  73 S9        29.94S
CHEYENNE       CLOUDY    51  36  56 NW6       29.90S
TORRINGTON     CLOUDY    56  44  64 W8        29.79S
PINE BLUFFS    CLOUDY    54  41  62 W7        29.87S

$$


USA.gov is the U.S. government's official web portal to all federal, state and local government web resources and services.